This is the latest recevied weather packets stored in our database for station/object DG3OBU-6. If no packets are shown the sender has not sent any weather packets the latest 10 day(s).
| Time | Temp. | Humidity | Pressure | Rain* | Wind** | Luminosity | Snow |
|---|---|---|---|---|---|---|---|
| 1777803902 | 23.89° C | 50% | 1010.1 hPa | 0 mm | - | - | - |
| 1777803602 | 23.89° C | 51% | 1010.2 hPa | 0 mm | - | - | - |
| 1777803302 | 24.44° C | 48% | 1010.2 hPa | 0 mm | - | - | - |
| 1777803002 | 23.89° C | 50% | 1010.2 hPa | 0 mm | - | - | - |
| 1777802703 | 23.89° C | 51% | 1010.3 hPa | 0 mm | - | - | - |
| 1777802403 | 23.33° C | 52% | 1010.4 hPa | 0 mm | - | - | - |
| 1777802103 | 23.33° C | 50% | 1010.4 hPa | 0 mm | - | - | - |
| 1777801803 | 23.33° C | 53% | 1010.4 hPa | 0 mm | - | - | - |
| 1777801503 | 22.78° C | 52% | 1010.5 hPa | 0 mm | - | - | - |
| 1777801203 | 22.78° C | 51% | 1010.5 hPa | 0 mm | - | - | - |
| 1777800903 | 23.33° C | 54% | 1010.5 hPa | 0 mm | - | - | - |
| 1777800603 | 22.78° C | 53% | 1010.5 hPa | 0 mm | - | - | - |
| 1777800302 | 22.22° C | 53% | 1010.5 hPa | 0 mm | - | - | - |
| 1777800002 | 22.22° C | 57% | 1010.6 hPa | 0 mm | - | - | - |
| 1777799702 | 21.11° C | 58% | 1010.6 hPa | 0 mm | - | - | - |
| 1777799402 | 20.56° C | 56% | 1010.7 hPa | 0 mm | - | - | - |
| 1777798802 | 20.56° C | 58% | 1010.7 hPa | 0 mm | - | - | - |
| 1777798502 | 20.56° C | 57% | 1010.9 hPa | 0 mm | - | - | - |
| 1777798202 | 20.56° C | 56% | 1011 hPa | 0 mm | - | - | - |
| 1777797902 | 20.56° C | 55% | 1011 hPa | 0 mm | - | - | - |
| 1777797602 | 20.56° C | 54% | 1011 hPa | 0 mm | - | - | - |
| 1777797302 | 20.56° C | 56% | 1010.9 hPa | 0 mm | - | - | - |
| 1777797002 | 20° C | 56% | 1010.9 hPa | 0 mm | - | - | - |
| 1777796702 | 20° C | 56% | 1010.9 hPa | 0 mm | - | - | - |
| 1777796402 | 20.56° C | 58% | 1011 hPa | 0 mm | - | - | - |
* Rain latest hour (hover to see other rain measurements)
** Current wind speed in m/s (hover to see current wind gust speed)